QPF
0.00 0.00 0.00 0.00 0.00 0.00 0.00 0.01 0.01 0.01 0.01 0.02 0.02 0.02 0.01 0.01 0.00 0.00 0.00 0.00 0.01 0.03 0.05 0.06 0.04 0.01 0.00 0.00 0.00 0.00 0.00 0.00 0.00 0.00 0.00 0.00 0.00 0.00 0.00 0.00 0.00 0.00 0.00
0.00 0.00 0.00 0.00 0.00 0.00 0.01 0.01 0.01 0.01 0.02 0.02 0.02 0.01 0.01 0.00 0.00 0.00 0.00 0.00 0.02 0.05 0.06 0.04 0.01 0.00 0.00 0.00 0.00 0.00 0.00 0.00 0.00 0.00 0.00 0.00 0.00 0.00 0.00 0.00 0.00 0.00 0.00
0.00 0.00 0.00 0.00 0.00 0.00 0.01 0.01 0.01 0.01 0.02 0.01 0.01 0.01 0.00 0.00 0.00 0.00 0.01 0.02 0.04 0.05 0.04 0.02 0.00 0.00 0.00 0.00 0.00 0.00 0.00 0.00 0.00 0.00 0.00 0.00 0.00 0.00 0.00 0.00 0.00 0.00 0.00
0.00 0.00 0.00 0.00 0.00 0.01 0.01 0.01 0.01 0.01 0.01 0.01 0.01 0.00 0.00 0.00 0.00 0.00 0.01 0.02 0.02 0.02 0.01 0.00 0.00 0.00 0.00 0.00 0.00 0.00 0.00 0.00 0.00 0.00 0.00 0.00 0.00 0.00 0.00 0.00 0.00 0.00 0.00
0.00 0.00 0.00 0.00 0.00 0.01 0.01 0.01 0.01 0.01 0.01 0.01 0.00 0.00 0.00 0.00 0.00 0.00 0.01 0.01 0.00 0.00 0.00 0.00 0.00 0.00 0.00 0.00 0.00 0.00 0.00 0.00 0.00 0.00 0.00 0.00 0.00 0.00 0.00 0.00 0.00 0.00 0.00
0.00 0.00 0.00 0.00 0.00 0.00 0.01 0.01 0.01 0.01 0.01 0.01 0.00 0.00 0.00 0.00 0.00 0.00 0.00 0.00 0.00 0.00 0.00 0.00 0.00 0.00 0.00 0.00 0.00 0.00 0.00 0.00 0.00 0.00 0.00 0.00 0.00 0.00 0.00 0.00 0.01 0.01 0.01
0.00 0.00 0.00 0.00 0.00 0.00 0.00 0.01 0.01 0.02 0.01 0.01 0.00 0.00 0.00 0.00 0.00 0.00 0.00 0.00 0.00 0.00 0.00 0.00 0.00 0.00 0.00 0.00 0.00 0.00 0.00 0.00 0.00 0.00 0.00 0.00 0.00 0.00 0.00 0.01 0.01 0.02 0.02
0.00 0.00 0.00 0.00 0.00 0.00 0.00 0.00 0.01 0.02 0.01 0.01 0.00 0.00 0.00 0.00 0.00 0.00 0.00 0.00 0.00 0.00 0.00 0.00 0.00 0.00 0.00 0.00 0.00 0.00 0.00 0.00 0.00 0.00 0.00 0.00 0.00 0.00 0.01 0.02 0.02 0.02 0.02
0.00 0.00 0.00 0.00 0.00 0.00 0.00 0.00 0.01 0.01 0.01 0.01 0.00 0.00 0.00 0.00 0.00 0.00 0.00 0.00 0.00 0.00 0.00 0.00 0.00 0.00 0.00 0.00 0.00 0.00 0.00 0.00 0.00 0.00 0.00 0.00 0.00 0.02 0.03 0.03 0.03 0.02 0.01
0.00 0.00 0.00 0.00 0.00 0.00 0.00 0.00 0.01 0.01 0.01 0.01 0.00 0.00 0.00 0.00 0.00 0.00 0.00 0.00 0.00 0.00 0.00 0.00 0.00 0.00 0.00 0.00 0.00 0.00 0.00 0.00 0.00 0.00 0.00 0.00 0.02 0.04 0.04 0.02 0.02 0.01 0.01
0.00 0.00 0.00 0.00 0.00 0.00 0.00 0.00 0.00 0.01 0.01 0.00 0.00 0.00 0.00 0.00 0.00 0.00 0.00 0.00 0.00 0.00 0.00 0.00 0.00 0.00 0.00 0.00 0.00 0.00 0.00 0.00 0.00 0.00 0.00 0.01 0.02 0.02 0.01 0.01 0.01 0.00 0.00
0.00 0.00 0.00 0.00 0.00 0.00 0.00 0.00 0.00 0.00 0.00 0.00 0.00 0.00 0.00 0.00 0.00 0.00 0.00 0.00 0.00 0.00 0.00 0.00 0.00 0.00 0.00 0.00 0.00 0.00 0.00 0.00 0.00 0.00 0.00 0.00 0.01 0.00 0.00 0.00 0.00 0.00 0.00
0.00 0.00 0.00 0.00 0.00 0.00 0.00 0.00 0.00 0.00 0.00 0.00 0.00 0.00 0.00 0.00 0.00 0.00 0.00 0.00 0.00 0.00 0.00 0.00 0.00 0.00 0.00 0.00 0.00 0.00 0.00 0.00 0.00 0.00 0.00 0.00 0.00 0.00 0.00 0.00 0.00 0.00 0.00
0.00 0.00 0.00 0.00 0.00 0.00 0.00 0.00 0.00 0.00 0.00 0.00 0.00 0.00 0.00 0.00 0.00 0.00 0.00 0.00 0.00 0.00 0.00 0.00 0.00 0.00 0.00 0.00 0.00 0.00 0.00 0.00 0.00 0.00 0.00 0.00 0.00 0.00 0.00 0.00 0.00 0.00 0.00
0.00 0.00 0.00 0.00 0.00 0.00 0.00 0.00 0.00 0.00 0.00 0.00 0.00 0.00 0.00 0.00 0.00 0.00 0.00 0.01 0.00 0.00 0.00 0.00 0.00 0.00 0.00 0.00 0.00 0.00 0.00 0.00 0.00 0.00 0.00 0.00 0.00 0.00 0.00 0.00 0.00 0.00 0.00
0.00 0.00 0.00 0.00 0.00 0.00 0.00 0.00 0.00 0.00 0.00 0.00 0.00 0.00 0.00 0.00 0.00 0.00 0.00 0.01 0.01 0.00 0.00 0.00 0.00 0.00 0.00 0.00 0.00 0.00 0.00 0.00 0.00 0.00 0.00 0.00 0.00 0.00 0.00 0.00 0.00 0.00 0.00
0.00 0.00 0.00 0.00 0.00 0.00 0.00 0.00 0.00 0.00 0.00 0.00 0.00 0.00 0.00 0.00 0.00 0.00 0.00 0.00 0.00 0.00 0.00 0.00 0.00 0.00 0.00 0.00 0.00 0.00 0.00 0.00 0.00 0.00 0.00 0.00 0.00 0.00 0.00 0.00 0.00 0.00 0.00
0.00 0.00 0.00 0.00 0.00 0.00 0.00 0.00 0.00 0.01 0.01 0.01 0.01 0.01 0.00 0.00 0.00 0.00 0.00 0.00 0.00 0.00 0.00 0.00 0.00 0.00 0.00 0.00 0.00 0.00 0.00 0.00 0.00 0.00 0.00 0.00 0.00 0.00 0.00 0.00 0.00 0.00 0.00
0.00 0.00 0.00 0.00 0.00 0.00 0.00 0.01 0.01 0.01 0.01 0.01 0.01 0.01 0.00 0.01 0.01 0.00 0.00 0.00 0.00 0.00 0.00 0.00 0.00 0.00 0.00 0.00 0.00 0.00 0.00 0.00 0.00 0.00 0.00 0.00 0.00 0.00 0.00 0.00 0.00 0.00 0.00
0.00 0.00 0.00 0.00 0.00 0.00 0.01 0.01 0.02 0.01 0.01 0.01 0.01 0.01 0.01 0.01 0.02 0.01 0.01 0.01 0.01 0.00 0.00 0.00 0.00 0.00 0.00 0.00 0.00 0.00 0.00 0.00 0.00 0.00 0.00 0.00 0.00 0.00 0.00 0.00 0.00 0.00 0.00
0.00 0.00 0.00 0.00 0.00 0.00 0.00 0.01 0.01 0.01 0.01 0.01 0.01 0.01 0.01 0.01 0.01 0.01 0.01 0.01 0.01 0.01 0.01 0.01 0.00 0.00 0.00 0.00 0.00 0.00 0.00 0.00 0.00 0.00 0.00 0.00 0.00 0.00 0.00 0.00 0.00 0.00 0.00
0.00 0.00 0.00 0.00 0.00 0.00 0.00 0.00 0.00 0.01 0.01 0.01 0.01 0.01 0.00 0.01 0.01 0.01 0.01 0.01 0.02 0.02 0.02 0.01 0.01 0.00 0.00 0.00 0.00 0.00 0.00 0.00 0.00 0.00 0.00 0.00 0.00 0.00 0.00 0.00 0.00 0.00 0.00
0.00 0.00 0.00 0.00 0.00 0.00 0.00 0.00 0.00 0.00 0.00 0.01 0.01 0.01 0.01 0.01 0.01 0.01 0.01 0.02 0.02 0.03 0.03 0.03 0.03 0.01 0.01 0.01 0.01 0.00 0.00 0.00 0.00 0.00 0.00 0.00 0.00 0.00 0.00 0.00 0.00 0.00 0.00
0.00 0.00 0.00 0.00 0.00 0.00 0.00 0.00 0.00 0.00 0.00 0.00 0.00 0.01 0.02 0.03 0.03 0.03 0.02 0.02 0.02 0.04 0.04 0.05 0.05 0.05 0.03 0.02 0.02 0.01 0.01 0.00 0.00 0.00 0.00 0.00 0.00 0.00 0.00 0.00 0.00 0.00 0.00
0.00 0.00 0.00 0.00 0.00 0.00 0.00 0.00 0.00 0.00 0.00 0.00 0.00 0.01 0.01 0.03 0.04 0.04 0.04 0.04 0.03 0.04 0.05 0.05 0.06 0.07 0.05 0.04 0.03 0.04 0.03 0.01 0.00 0.00 0.00 0.00 0.00 0.00 0.00 0.00 0.00 0.00 0.00
0.00 0.00 0.00 0.00 0.00 0.00 0.00 0.00 0.00 0.00 0.00 0.00 0.00 0.00 0.01 0.02 0.04 0.05 0.05 0.04 0.04 0.04 0.05 0.06 0.07 0.09 0.10 0.08 0.05 0.05 0.06 0.05 0.03 0.02 0.02 0.01 0.01 0.00 0.00 0.00 0.00 0.00 0.00
MSLP
1012.96 1013.05 1013.18 1013.39 1013.68 1014.01 1014.36 1014.69 1014.98 1015.23 1015.43 1015.61 1015.79 1015.99 1016.21 1016.46 1016.71 1016.94 1017.14 1017.28 1017.39 1017.47 1017.54 1017.63 1017.74 1017.87 1018.03 1018.17 1018.31 1018.42 1018.51 1018.59 1018.67 1018.77 1018.88 1019.00 1019.12 1019.22 1019.27 1019.28 1019.24 1019.18 1019.10
1012.82 1012.98 1013.23 1013.55 1013.92 1014.32 1014.70 1015.03 1015.30 1015.51 1015.68 1015.84 1016.02 1016.24 1016.49 1016.76 1017.03 1017.27 1017.47 1017.62 1017.73 1017.82 1017.91 1018.02 1018.16 1018.32 1018.48 1018.62 1018.73 1018.80 1018.85 1018.88 1018.92 1018.99 1019.09 1019.21 1019.33 1019.43 1019.49 1019.50 1019.45 1019.37 1019.28
1012.60 1012.85 1013.20 1013.63 1014.11 1014.58 1015.01 1015.36 1015.63 1015.83 1015.99 1016.15 1016.33 1016.56 1016.82 1017.10 1017.37 1017.60 1017.78 1017.91 1018.01 1018.10 1018.20 1018.33 1018.49 1018.67 1018.83 1018.97 1019.05 1019.09 1019.09 1019.07 1019.08 1019.12 1019.21 1019.33 1019.46 1019.58 1019.65 1019.66 1019.62 1019.55 1019.47
1012.36 1012.69 1013.13 1013.66 1014.23 1014.77 1015.25 1015.64 1015.92 1016.13 1016.30 1016.47 1016.67 1016.91 1017.18 1017.45 1017.70 1017.91 1018.06 1018.15 1018.23 1018.31 1018.42 1018.56 1018.74 1018.93 1019.10 1019.23 1019.29 1019.30 1019.26 1019.21 1019.19 1019.21 1019.29 1019.40 1019.54 1019.66 1019.75 1019.78 1019.77 1019.71 1019.66
1012.15 1012.54 1013.06 1013.67 1014.30 1014.91 1015.43 1015.85 1016.16 1016.39 1016.58 1016.77 1016.99 1017.25 1017.52 1017.78 1018.02 1018.19 1018.30 1018.36 1018.41 1018.48 1018.59 1018.74 1018.94 1019.15 1019.32 1019.45 1019.50 1019.48 1019.42 1019.35 1019.30 1019.30 1019.37 1019.48 1019.62 1019.75 1019.85 1019.90 1019.90 1019.88 1019.86
1012.04 1012.47 1013.04 1013.70 1014.38 1015.01 1015.55 1015.99 1016.31 1016.57 1016.78 1017.01 1017.26 1017.54 1017.82 1018.08 1018.30 1018.45 1018.53 1018.56 1018.60 1018.66 1018.77 1018.93 1019.14 1019.36 1019.54 1019.67 1019.71 1019.68 1019.61 1019.52 1019.45 1019.45 1019.50 1019.60 1019.73 1019.86 1019.97 1020.03 1020.06 1020.07 1020.07
1012.10 1012.55 1013.13 1013.80 1014.48 1015.11 1015.64 1016.07 1016.40 1016.66 1016.91 1017.16 1017.45 1017.75 1018.06 1018.34 1018.55 1018.68 1018.75 1018.78 1018.80 1018.86 1018.98 1019.16 1019.38 1019.60 1019.79 1019.91 1019.95 1019.92 1019.84 1019.74 1019.67 1019.66 1019.70 1019.80 1019.92 1020.04 1020.14 1020.21 1020.25 1020.28 1020.32
1012.34 1012.79 1013.36 1014.00 1014.64 1015.23 1015.72 1016.11 1016.42 1016.69 1016.95 1017.23 1017.55 1017.90 1018.23 1018.53 1018.76 1018.90 1018.98 1019.01 1019.05 1019.12 1019.25 1019.43 1019.66 1019.88 1020.07 1020.18 1020.22 1020.18 1020.10 1020.01 1019.94 1019.93 1019.97 1020.06 1020.17 1020.28 1020.38 1020.44 1020.49 1020.54 1020.60
1012.75 1013.18 1013.71 1014.30 1014.87 1015.38 1015.81 1016.14 1016.42 1016.66 1016.93 1017.23 1017.59 1017.96 1018.33 1018.66 1018.91 1019.08 1019.18 1019.25 1019.31 1019.40 1019.54 1019.73 1019.95 1020.16 1020.33 1020.43 1020.46 1020.42 1020.34 1020.26 1020.21 1020.22 1020.27 1020.36 1020.47 1020.58 1020.67 1020.73 1020.78 1020.84 1020.91
1013.25 1013.65 1014.13 1014.64 1015.13 1015.55 1015.89 1016.16 1016.38 1016.61 1016.87 1017.18 1017.56 1017.96 1018.36 1018.71 1019.00 1019.20 1019.34 1019.44 1019.53 1019.64 1019.80 1019.99 1020.20 1020.39 1020.54 1020.62 1020.63 1020.59 1020.52 1020.46 1020.44 1020.47 1020.55 1020.66 1020.79 1020.91 1021.00 1021.07 1021.12 1021.18 1021.26
1013.73 1014.10 1014.53 1014.96 1015.36 1015.69 1015.95 1016.15 1016.33 1016.53 1016.78 1017.10 1017.48 1017.89 1018.30 1018.68 1018.99 1019.22 1019.39 1019.53 1019.65 1019.79 1019.96 1020.15 1020.35 1020.52 1020.63 1020.69 1020.69 1020.64 1020.59 1020.56 1020.57 1020.64 1020.77 1020.92 1021.07 1021.22 1021.33 1021.41 1021.48 1021.54 1021.63
1014.10 1014.44 1014.82 1015.18 1015.51 1015.76 1015.96 1016.11 1016.25 1016.43 1016.67 1016.98 1017.36 1017.76 1018.17 1018.54 1018.86 1019.11 1019.31 1019.47 1019.63 1019.80 1019.98 1020.17 1020.35 1020.50 1020.60 1020.63 1020.62 1020.59 1020.55 1020.56 1020.61 1020.73 1020.90 1021.10 1021.30 1021.48 1021.63 1021.74 1021.83 1021.91 1022.00
1014.28 1014.60 1014.93 1015.25 1015.51 1015.72 1015.87 1016.00 1016.13 1016.30 1016.53 1016.83 1017.19 1017.57 1017.96 1018.31 1018.61 1018.86 1019.07 1019.26 1019.44 1019.64 1019.84 1020.03 1020.21 1020.35 1020.43 1020.47 1020.46 1020.44 1020.43 1020.47 1020.57 1020.74 1020.96 1021.21 1021.46 1021.69 1021.88 1022.02 1022.14 1022.24 1022.34
1014.24 1014.54 1014.84 1015.12 1015.35 1015.54 1015.68 1015.81 1015.95 1016.12 1016.36 1016.64 1016.97 1017.32 1017.66 1017.98 1018.25 1018.49 1018.70 1018.90 1019.11 1019.33 1019.55 1019.77 1019.95 1020.10 1020.19 1020.23 1020.25 1020.25 1020.28 1020.36 1020.50 1020.71 1020.98 1021.26 1021.55 1021.82 1022.05 1022.24 1022.39 1022.52 1022.65
1014.00 1014.28 1014.56 1014.82 1015.04 1015.22 1015.38 1015.54 1015.70 1015.90 1016.14 1016.41 1016.71 1017.02 1017.31 1017.57 1017.81 1018.03 1018.23 1018.45 1018.67 1018.92 1019.18 1019.42 1019.64 1019.81 1019.93 1020.00 1020.05 1020.09 1020.16 1020.27 1020.45 1020.69 1020.97 1021.28 1021.59 1021.88 1022.14 1022.37 1022.56 1022.73 1022.88
1013.63 1013.90 1014.15 1014.39 1014.62 1014.81 1015.00 1015.19 1015.40 1015.63 1015.88 1016.14 1016.41 1016.67 1016.91 1017.12 1017.32 1017.51 1017.72 1017.95 1018.20 1018.49 1018.78 1019.07 1019.33 1019.54 1019.71 1019.83 1019.92 1020.01 1020.11 1020.26 1020.45 1020.69 1020.98 1021.28 1021.58 1021.88 1022.15 1022.40 1022.63 1022.83 1023.03
1013.24 1013.47 1013.70 1013.93 1014.15 1014.36 1014.59 1014.82 1015.06 1015.32 1015.58 1015.84 1016.08 1016.30 1016.49 1016.66 1016.83 1017.01 1017.22 1017.47 1017.75 1018.08 1018.42 1018.75 1019.06 1019.33 1019.54 1019.72 1019.86 1020.00 1020.14 1020.31 1020.51 1020.74 1020.99 1021.26 1021.54 1021.81 1022.08 1022.34 1022.59 1022.83 1023.06
1012.92 1013.11 1013.30 1013.50 1013.71 1013.94 1014.18 1014.44 1014.72 1015.00 1015.27 1015.51 1015.72 1015.91 1016.06 1016.21 1016.36 1016.54 1016.76 1017.04 1017.36 1017.72 1018.11 1018.49 1018.84 1019.16 1019.43 1019.66 1019.86 1020.03 1020.21 1020.39 1020.59 1020.79 1021.01 1021.23 1021.46 1021.69 1021.93 1022.18 1022.45 1022.72 1023.00
1012.75 1012.88 1013.02 1013.18 1013.37 1013.59 1013.84 1014.11 1014.39 1014.67 1014.93 1015.16 1015.35 1015.50 1015.63 1015.76 1015.91 1016.10 1016.35 1016.66 1017.02 1017.42 1017.83 1018.25 1018.64 1018.99 1019.30 1019.58 1019.82 1020.04 1020.25 1020.44 1020.63 1020.81 1020.98 1021.14 1021.31 1021.50 1021.71 1021.95 1022.22 1022.52 1022.83
1012.75 1012.82 1012.90 1013.01 1013.15 1013.34 1013.58 1013.84 1014.11 1014.37 1014.60 1014.80 1014.95 1015.08 1015.19 1015.32 1015.48 1015.69 1015.97 1016.31 1016.70 1017.12 1017.56 1017.99 1018.39 1018.77 1019.11 1019.42 1019.69 1019.95 1020.18 1020.39 1020.57 1020.73 1020.86 1020.98 1021.10 1021.24 1021.42 1021.64 1021.92 1022.24 1022.58
1012.93 1012.93 1012.94 1012.99 1013.08 1013.23 1013.42 1013.64 1013.87 1014.09 1014.27 1014.42 1014.54 1014.64 1014.74 1014.86 1015.03 1015.27 1015.57 1015.93 1016.34 1016.77 1017.21 1017.64 1018.04 1018.42 1018.77 1019.09 1019.40 1019.68 1019.94 1020.17 1020.36 1020.51 1020.63 1020.73 1020.82 1020.93 1021.08 1021.29 1021.57 1021.91 1022.28
1013.23 1013.17 1013.12 1013.10 1013.13 1013.22 1013.35 1013.51 1013.68 1013.83 1013.96 1014.05 1014.12 1014.18 1014.26 1014.38 1014.55 1014.80 1015.12 1015.49 1015.90 1016.33 1016.75 1017.16 1017.55 1017.91 1018.25 1018.58 1018.90 1019.21 1019.50 1019.76 1019.98 1020.15 1020.28 1020.37 1020.46 1020.57 1020.72 1020.93 1021.21 1021.57 1021.97
1013.61 1013.50 1013.39 1013.31 1013.28 1013.30 1013.37 1013.46 1013.55 1013.62 1013.67 1013.69 1013.70 1013.71 1013.76 1013.86 1014.03 1014.27 1014.59 1014.95 1015.35 1015.76 1016.16 1016.53 1016.89 1017.23 1017.56 1017.89 1018.23 1018.56 1018.89 1019.18 1019.44 1019.65 1019.82 1019.95 1020.06 1020.18 1020.35 1020.58 1020.88 1021.26 1021.68
1014.01 1013.85 1013.71 1013.58 1013.50 1013.46 1013.45 1013.46 1013.47 1013.46 1013.42 1013.36 1013.30 1013.25 1013.26 1013.32 1013.47 1013.70 1013.99 1014.34 1014.71 1015.08 1015.44 1015.79 1016.11 1016.43 1016.75 1017.08 1017.43 1017.80 1018.16 1018.50 1018.81 1019.08 1019.30 1019.48 1019.64 1019.82 1020.02 1020.28 1020.61 1021.00 1021.44
1014.36 1014.20 1014.03 1013.88 1013.76 1013.66 1013.59 1013.52 1013.45 1013.35 1013.22 1013.09 1012.95 1012.84 1012.79 1012.82 1012.92 1013.11 1013.37 1013.68 1014.01 1014.34 1014.67 1014.98 1015.28 1015.59 1015.91 1016.25 1016.62 1017.01 1017.41 1017.80 1018.17 1018.50 1018.78 1019.03 1019.26 1019.49 1019.75 1020.06 1020.42 1020.83 1021.29
1014.67 1014.53 1014.36 1014.20 1014.05 1013.91 1013.78 1013.64 1013.49 1013.31 1013.11 1012.90 1012.69 1012.52 1012.41 1012.38 1012.43 1012.57 1012.78 1013.04 1013.33 1013.62 1013.92 1014.21 1014.50 1014.80 1015.12 1015.48 1015.88 1016.30 1016.74 1017.17 1017.59 1017.97 1018.32 1018.64 1018.94 1019.24 1019.56 1019.91 1020.31 1020.75 1021.22
Thickness
5772 5771 5767 5763 5761 5760 5758 5757 5755 5754 5752 5750 5748 5746 5744 5743 5742 5741 5741 5741 5741 5740 5739 5737 5735 5734 5732 5731 5730 5728 5727 5726 5725 5724 5722 5721 5720 5719 5718 5718 5718 5715 5714
5774 5768 5764 5761 5759 5757 5755 5753 5752 5750 5748 5746 5744 5742 5741 5739 5738 5737 5737 5737 5737 5736 5734 5732 5730 5728 5727 5725 5724 5723 5722 5721 5720 5719 5718 5717 5715 5714 5713 5712 5712 5711 5710
5771 5765 5762 5758 5756 5754 5752 5750 5748 5746 5744 5742 5740 5738 5736 5735 5734 5733 5733 5733 5732 5731 5729 5727 5725 5723 5722 5720 5719 5718 5717 5717 5716 5714 5714 5712 5711 5710 5709 5708 5707 5707 5706
5768 5762 5759 5756 5753 5751 5749 5747 5745 5742 5740 5738 5736 5734 5732 5731 5730 5729 5729 5728 5726 5725 5723 5721 5720 5718 5717 5715 5714 5713 5713 5713 5712 5712 5712 5709 5707 5706 5705 5704 5704 5703 5702
5765 5761 5755 5753 5750 5748 5746 5744 5741 5739 5737 5734 5732 5730 5728 5727 5726 5725 5724 5722 5721 5719 5717 5716 5714 5713 5712 5710 5709 5708 5709 5708 5708 5708 5708 5705 5703 5702 5701 5701 5700 5700 5699
5762 5756 5751 5749 5746 5744 5742 5740 5738 5736 5733 5731 5728 5726 5725 5724 5722 5720 5719 5717 5715 5714 5712 5710 5709 5708 5707 5706 5704 5704 5704 5703 5703 5704 5703 5700 5699 5698 5697 5696 5696 5696 5695
5757 5751 5746 5744 5742 5740 5738 5736 5734 5732 5730 5727 5725 5723 5721 5719 5717 5715 5714 5712 5711 5709 5707 5706 5704 5703 5702 5701 5700 5699 5699 5699 5699 5699 5697 5696 5694 5693 5693 5692 5691 5691 5690
5753 5746 5742 5740 5738 5736 5734 5733 5731 5729 5727 5724 5722 5719 5717 5715 5713 5711 5710 5708 5707 5705 5703 5702 5700 5699 5697 5696 5694 5694 5694 5694 5694 5694 5692 5691 5690 5689 5688 5687 5686 5684 5683
5748 5742 5737 5735 5734 5732 5730 5729 5727 5725 5723 5721 5719 5716 5714 5711 5709 5707 5706 5704 5703 5702 5700 5698 5696 5695 5693 5691 5690 5689 5690 5690 5689 5689 5687 5686 5685 5684 5682 5680 5679 5677 5676
5743 5739 5736 5733 5731 5729 5727 5725 5723 5721 5719 5717 5715 5713 5710 5708 5706 5703 5702 5700 5699 5697 5695 5693 5692 5691 5689 5687 5686 5685 5685 5685 5685 5683 5681 5680 5679 5678 5676 5674 5672 5670 5668
5735 5736 5735 5733 5730 5728 5725 5722 5719 5717 5715 5713 5711 5709 5707 5705 5703 5701 5699 5696 5695 5693 5691 5689 5688 5687 5685 5683 5682 5682 5681 5681 5680 5677 5675 5673 5672 5671 5669 5666 5665 5663 5661
5726 5729 5732 5731 5729 5727 5724 5718 5717 5714 5712 5710 5708 5705 5704 5703 5702 5699 5696 5694 5691 5689 5687 5685 5684 5683 5681 5680 5679 5678 5678 5677 5676 5672 5669 5667 5665 5664 5661 5659 5657 5656 5653
5721 5724 5726 5726 5725 5724 5721 5716 5715 5713 5710 5708 5707 5703 5702 5702 5701 5698 5694 5690 5688 5685 5683 5681 5680 5679 5678 5676 5675 5675 5674 5673 5672 5668 5664 5662 5659 5657 5655 5652 5651 5649 5647
5718 5718 5719 5720 5719 5719 5718 5716 5714 5712 5709 5706 5706 5703 5701 5700 5699 5697 5693 5689 5686 5683 5681 5678 5677 5676 5675 5673 5672 5671 5670 5669 5667 5664 5659 5657 5654 5651 5649 5646 5644 5642 5640
5715 5715 5714 5714 5714 5714 5713 5713 5712 5710 5708 5706 5704 5703 5700 5698 5696 5694 5692 5689 5686 5683 5680 5677 5675 5674 5672 5669 5668 5667 5665 5663 5661 5659 5654 5652 5649 5646 5643 5641 5638 5636 5633
5714 5713 5712 5711 5710 5710 5709 5708 5708 5707 5706 5705 5702 5700 5698 5697 5694 5691 5689 5688 5685 5683 5680 5676 5673 5672 5669 5666 5663 5661 5660 5658 5656 5653 5650 5646 5644 5641 5638 5635 5633 5630 5628
5713 5714 5712 5711 5709 5707 5705 5704 5703 5703 5703 5702 5700 5698 5695 5693 5691 5688 5686 5684 5682 5679 5676 5674 5671 5668 5665 5662 5658 5656 5654 5653 5651 5648 5645 5642 5638 5636 5633 5630 5627 5624 5622
5712 5712 5712 5712 5709 5706 5704 5702 5701 5699 5698 5697 5696 5695 5693 5690 5687 5685 5682 5680 5677 5674 5671 5669 5666 5662 5659 5656 5653 5651 5649 5647 5645 5643 5640 5637 5634 5630 5628 5625 5622 5619 5616
5708 5708 5708 5709 5708 5706 5704 5702 5700 5697 5695 5693 5691 5690 5689 5686 5684 5681 5679 5676 5672 5669 5665 5663 5659 5656 5651 5649 5646 5644 5643 5640 5638 5637 5635 5633 5630 5626 5622 5620 5617 5614 5611
5702 5702 5703 5704 5704 5703 5701 5699 5697 5695 5693 5690 5688 5685 5683 5682 5680 5677 5674 5671 5668 5663 5659 5656 5652 5649 5645 5641 5638 5636 5634 5633 5631 5630 5629 5627 5624 5621 5618 5614 5611 5608 5605
5691 5692 5693 5694 5695 5696 5694 5692 5690 5689 5689 5687 5685 5682 5679 5676 5673 5670 5668 5665 5662 5658 5654 5649 5645 5640 5637 5633 5626 5622 5622 5624 5624 5624 5622 5620 5618 5616 5613 5609 5605 5602 5599
5679 5681 5683 5684 5686 5687 5688 5688 5687 5686 5686 5685 5683 5679 5676 5671 5667 5664 5660 5657 5654 5651 5647 5644 5639 5633 5629 5626 5619 5610 5607 5608 5613 5617 5615 5614 5612 5610 5607 5604 5600 5597 5594
5666 5668 5671 5674 5676 5678 5680 5680 5680 5679 5678 5677 5676 5674 5672 5668 5663 5659 5655 5650 5646 5643 5640 5637 5633 5627 5622 5618 5617 5611 5605 5605 5604 5606 5608 5607 5605 5603 5601 5598 5594 5591 5587
5656 5658 5661 5664 5667 5669 5670 5669 5667 5666 5665 5667 5668 5668 5667 5664 5660 5655 5650 5645 5640 5636 5633 5630 5626 5621 5615 5610 5607 5608 5608 5607 5599 5595 5596 5598 5597 5596 5593 5591 5587 5584 5580
5647 5649 5651 5654 5657 5659 5660 5660 5658 5657 5658 5659 5660 5659 5659 5658 5656 5651 5646 5640 5635 5630 5626 5622 5617 5614 5610 5605 5599 5598 5595 5594 5596 5589 5585 5586 5587 5587 5585 5583 5579 5575 5571
5639 5640 5642 5644 5647 5649 5650 5650 5649 5648 5648 5648 5648 5648 5649 5649 5648 5646 5641 5635 5629 5623 5618 5614 5609 5605 5601 5597 5592 5589 5586 5583 5583 5583 5581 5576 5576 5576 5575 5572 5569 5565 5561